Terug naar catalogus

STARLINK-1417

ActiefCommunicatieVLEO
NORAD 45693·PAYLOAD·🇺🇸 United States

Gelanceerd Jun 4, 2020 vanaf Cape Canaveral Space Force Station

Loading…

Volgende Passages (komende 24 uur)

TLE

VersSource: CelesTrak SupGP

Epoch: Sep 15, 2026, 02:11 UTC

1 45693C 20035AN  26258.09145833  .00004385  00000+0  19395-3 0  2580
2 45693  53.0443 269.9806 0004059  87.2869 331.6166 15.21154904    15

Volg STARLINK-1417 in realtime met AllMySat

Download on the App Store